Estación de La Piedad

Ultimos registro cada 15 minutos 35
Estación Fecha / Hora Temperatura Humedad Lluvia Velocidad Dirección Radiación Presion
35 La Piedad 10-05-2026 08:30 -0,3 97 0 0 216 58 1017,3
34 La Piedad 10-05-2026 08:15 -1,1 96 0 0 216 53 1017,1
33 La Piedad 10-05-2026 08:00 -1,8 96 0 0 216 21 1017,1
32 La Piedad 10-05-2026 07:45 -1,9 95 0 0 216 12 1017,1
31 La Piedad 10-05-2026 07:30 -1,8 95 0 0 216 0 1016,9
30 La Piedad 10-05-2026 07:15 -1,3 95 0 0 216 0 1016,9
29 La Piedad 10-05-2026 07:00 -0,8 96 0 0 216 0 1017
28 La Piedad 10-05-2026 06:45 -1,1 96 0 0 216 0 1016,9
27 La Piedad 10-05-2026 06:30 -1,8 95 0 0 216 0 1016,8
26 La Piedad 10-05-2026 06:15 -1,6 95 0 0 216 0 1016,7
25 La Piedad 10-05-2026 06:00 -1,4 95 0 0 216 0 1016,6
24 La Piedad 10-05-2026 05:45 -1,3 96 0 0 216 0 1016,9
23 La Piedad 10-05-2026 05:30 -1,6 95 0 0 216 0 1016,8
22 La Piedad 10-05-2026 05:15 -1,3 94 0 0 216 0 1016,8
21 La Piedad 10-05-2026 05:00 -0,8 94 0 0 216 0 1016,6
20 La Piedad 10-05-2026 04:45 -0,2 94 0 0 216 0 1016,6
19 La Piedad 10-05-2026 04:30 0,7 96 0 0 216 0 1016,7
18 La Piedad 10-05-2026 04:15 0,6 96 0 0 216 0 1016,7
17 La Piedad 10-05-2026 04:00 0,3 95 0 0 216 0 1016,7
16 La Piedad 10-05-2026 03:45 0,2 94 0 0 216 0 1016,8
15 La Piedad 10-05-2026 03:30 0,9 95 0 0 216 0 1016,8
14 La Piedad 10-05-2026 03:15 1,1 95 0 0 216 0 1016,8
13 La Piedad 10-05-2026 03:00 1 95 0 0 216 0 1016,7
12 La Piedad 10-05-2026 02:45 1,1 94 0 0 216 0 1016,8
11 La Piedad 10-05-2026 02:30 1,7 93 0 0 216 0 1016,7
10 La Piedad 10-05-2026 02:15 2,5 95 0 0 216 0 1016,8
9 La Piedad 10-05-2026 02:00 2,7 95 0 0 216 0 1016,9
8 La Piedad 10-05-2026 01:45 2,7 95 0 0 216 0 1016,9
7 La Piedad 10-05-2026 01:30 2,8 94 0 0 216 0 1017
6 La Piedad 10-05-2026 01:15 3,4 95 0 0 216 0 1017,1
5 La Piedad 10-05-2026 01:00 3,3 96 0 0 216 0 1017,2
4 La Piedad 10-05-2026 00:45 1,7 95 0 0 216 0 1017,5
3 La Piedad 10-05-2026 00:30 1,2 93 0 0 216 0 1017,6
2 La Piedad 10-05-2026 00:15 1,8 93 0 0 216 0 1017,8
1 La Piedad 10-05-2026 00:00 2,7 92 0 0 216 0 1017,7